TAM3375 SBRF-SBGR

Flight info

Callsign TAM3375
Flight time 2h 54m
Altitude 34000
Route UDOSA UZ21 KORKA/N0459F360 UZ21 VUNOX
Aircraft A321/M-SDE3FGHIRWY/LB1

Departure

Time 2026-05-05 06:16
Airport Recife/Guararapes - Gilberto Freyre International Airport (SBRF)

Arrival

Time 2026-05-05 09:10
Airport São Paulo/Guarulhos–Governor André Franco Montoro International Airport (SBGR)
Time Latitude Longitude Altitude Speed Heading
2026-05-05 05:44 -8.13078 -34.91941 38 ft 0 kts 71°
2026-05-05 06:06 -8.13079 -34.91946 38 ft 3 kts 72°
2026-05-05 06:06 -8.13086 -34.91967 38 ft 3 kts 71°
2026-05-05 06:06 -8.13095 -34.91988 38 ft 3 kts 53°
2026-05-05 06:07 -8.13110 -34.92002 38 ft 3 kts 18°
2026-05-05 06:07 -8.13128 -34.92004 36 ft 1 kts 340°
2026-05-05 06:07 -8.13129 -34.92004 38 ft 0 kts 340°
2026-05-05 06:10 -8.13128 -34.92004 38 ft 1 kts 340°
2026-05-05 06:11 -8.13091 -34.92017 37 ft 12 kts 340°
2026-05-05 06:11 -8.12983 -34.92054 36 ft 17 kts 342°
2026-05-05 06:11 -8.12882 -34.92085 35 ft 13 kts 342°
2026-05-05 06:11 -8.12795 -34.92114 37 ft 15 kts 342°
2026-05-05 06:12 -8.12685 -34.92151 37 ft 19 kts 342°
2026-05-05 06:12 -8.12551 -34.92196 36 ft 22 kts 342°
2026-05-05 06:12 -8.12407 -34.92242 36 ft 20 kts 343°
2026-05-05 06:12 -8.12283 -34.92283 35 ft 17 kts 342°
2026-05-05 06:13 -8.12178 -34.92317 34 ft 14 kts 342°
2026-05-05 06:13 -8.12083 -34.92348 33 ft 17 kts 341°
2026-05-05 06:13 -8.11959 -34.92391 33 ft 18 kts 341°
2026-05-05 06:13 -8.11845 -34.92428 32 ft 17 kts 342°
2026-05-05 06:14 -8.11727 -34.92465 31 ft 18 kts 342°
2026-05-05 06:14 -8.11607 -34.92514 32 ft 19 kts 331°
2026-05-05 06:14 -8.11495 -34.92609 31 ft 20 kts 315°
2026-05-05 06:14 -8.11502 -34.92681 31 ft 9 kts 209°
2026-05-05 06:15 -8.11578 -34.92669 32 ft 14 kts 160°
2026-05-05 06:15 -8.11761 -34.92603 31 ft 57 kts 160°
2026-05-05 06:15 -8.12338 -34.92414 35 ft 115 kts 162°
2026-05-05 06:15 -8.13257 -34.92106 63 ft 159 kts 158°
2026-05-05 06:16 -8.14277 -34.91782 735 ft 151 kts 162°
2026-05-05 06:16 -8.15298 -34.91432 1299 ft 156 kts 161°
2026-05-05 06:16 -8.16397 -34.91094 1588 ft 176 kts 167°
2026-05-05 06:16 -8.17661 -34.91226 1728 ft 200 kts 207°
2026-05-05 06:17 -8.18622 -34.92357 1865 ft 233 kts 239°
2026-05-05 06:17 -8.19234 -34.93969 2189 ft 256 kts 249°
2026-05-05 06:17 -8.19741 -34.95736 2756 ft 266 kts 250°
2026-05-05 06:17 -8.20256 -34.97549 3391 ft 272 kts 249°
2026-05-05 06:18 -8.20814 -34.99383 4044 ft 276 kts 248°
2026-05-05 06:18 -8.21416 -35.01227 4761 ft 278 kts 247°
2026-05-05 06:18 -8.22055 -35.03074 5451 ft 280 kts 246°
2026-05-05 06:18 -8.22722 -35.04931 6138 ft 283 kts 246°
2026-05-05 06:19 -8.23404 -35.06808 6778 ft 287 kts 246°
2026-05-05 06:19 -8.24102 -35.08711 7378 ft 291 kts 246°
2026-05-05 06:19 -8.24812 -35.10634 8001 ft 294 kts 246°
2026-05-05 06:19 -8.25530 -35.12579 8594 ft 298 kts 247°
2026-05-05 06:20 -8.26258 -35.14553 9176 ft 302 kts 247°
2026-05-05 06:20 -8.27167 -35.16467 9766 ft 303 kts 233°
2026-05-05 06:20 -8.28475 -35.18150 10243 ft 310 kts 228°
2026-05-05 06:20 -8.29890 -35.19896 10351 ft 331 kts 228°
2026-05-05 06:21 -8.31391 -35.21747 10484 ft 350 kts 229°
2026-05-05 06:21 -8.32954 -35.23684 10844 ft 359 kts 229°
2026-05-05 06:21 -8.34538 -35.25660 11387 ft 363 kts 229°
2026-05-05 06:21 -8.36125 -35.27648 11926 ft 365 kts 229°
2026-05-05 06:22 -8.37728 -35.29652 12490 ft 367 kts 229°
2026-05-05 06:22 -8.39340 -35.31668 13033 ft 370 kts 230°
2026-05-05 06:22 -8.40966 -35.33698 13601 ft 373 kts 230°
2026-05-05 06:22 -8.42603 -35.35738 14076 ft 375 kts 230°
2026-05-05 06:23 -8.44254 -35.37796 14546 ft 378 kts 230°
2026-05-05 06:23 -8.45913 -35.39870 15008 ft 381 kts 230°
2026-05-05 06:23 -8.47584 -35.41963 15458 ft 385 kts 230°
2026-05-05 06:23 -8.49271 -35.44075 15917 ft 387 kts 230°
2026-05-05 06:24 -8.50971 -35.46198 16367 ft 390 kts 230°
2026-05-05 06:24 -8.52684 -35.48335 16817 ft 393 kts 230°
2026-05-05 06:24 -8.54413 -35.50491 17241 ft 396 kts 230°
2026-05-05 06:24 -8.56155 -35.52663 17674 ft 399 kts 230°
2026-05-05 06:25 -8.57910 -35.54853 18110 ft 402 kts 230°
2026-05-05 06:25 -8.59676 -35.57063 18526 ft 406 kts 230°
2026-05-05 06:25 -8.61431 -35.59259 18919 ft 408 kts 230°
2026-05-05 06:25 -8.63217 -35.61495 19295 ft 410 kts 230°
2026-05-05 06:26 -8.65014 -35.63742 19703 ft 412 kts 231°
2026-05-05 06:26 -8.66837 -35.66028 20116 ft 413 kts 231°
2026-05-05 06:26 -8.68647 -35.68298 20523 ft 416 kts 230°
2026-05-05 06:26 -8.70442 -35.70550 20915 ft 418 kts 231°
2026-05-05 06:27 -8.72271 -35.72843 21302 ft 420 kts 231°
2026-05-05 06:27 -8.75957 -35.77460 22043 ft 424 kts 231°
2026-05-05 06:27 -8.77817 -35.79786 22398 ft 426 kts 230°
2026-05-05 06:28 -8.79690 -35.82126 22731 ft 429 kts 230°
2026-05-05 06:28 -8.81570 -35.84476 23069 ft 431 kts 230°
2026-05-05 06:28 -8.83457 -35.86836 23422 ft 432 kts 230°
2026-05-05 06:28 -8.85348 -35.89207 23717 ft 434 kts 230°
2026-05-05 06:29 -8.87251 -35.91591 23992 ft 436 kts 230°
2026-05-05 06:29 -8.89159 -35.93978 24282 ft 437 kts 231°
2026-05-05 06:29 -8.91070 -35.96374 24578 ft 438 kts 231°
2026-05-05 06:29 -8.92982 -35.98776 24864 ft 439 kts 231°
2026-05-05 06:30 -8.94898 -36.01182 25148 ft 440 kts 231°
2026-05-05 06:30 -8.96820 -36.03593 25423 ft 441 kts 231°
2026-05-05 06:30 -8.98750 -36.06014 25706 ft 442 kts 231°
2026-05-05 06:30 -9.00682 -36.08442 25979 ft 444 kts 231°
2026-05-05 06:31 -9.02619 -36.10876 26258 ft 445 kts 231°
2026-05-05 06:31 -9.04738 -36.13160 26518 ft 446 kts 221°
2026-05-05 06:31 -9.07198 -36.15079 26773 ft 447 kts 215°
2026-05-05 06:31 -9.09758 -36.16877 27036 ft 449 kts 215°
2026-05-05 06:32 -9.12326 -36.18685 27299 ft 450 kts 215°
2026-05-05 06:32 -9.14897 -36.20501 27560 ft 452 kts 215°
2026-05-05 06:32 -9.17479 -36.22324 27816 ft 453 kts 215°
2026-05-05 06:32 -9.20069 -36.24157 28068 ft 455 kts 215°
2026-05-05 06:33 -9.22664 -36.25998 28330 ft 457 kts 215°
2026-05-05 06:33 -9.25268 -36.27843 28562 ft 458 kts 215°
2026-05-05 06:33 -9.27882 -36.29698 28794 ft 459 kts 215°
2026-05-05 06:33 -9.30503 -36.31559 29025 ft 461 kts 215°
2026-05-05 06:34 -9.33137 -36.33423 29257 ft 463 kts 215°
2026-05-05 06:34 -9.35779 -36.35290 29498 ft 464 kts 215°
2026-05-05 06:34 -9.38428 -36.37165 29734 ft 465 kts 215°
2026-05-05 06:34 -9.41092 -36.39048 29968 ft 467 kts 215°
2026-05-05 06:35 -9.43757 -36.40931 30205 ft 469 kts 215°
2026-05-05 06:35 -9.46401 -36.42798 30410 ft 470 kts 215°
2026-05-05 06:35 -9.49115 -36.44719 30651 ft 470 kts 215°
2026-05-05 06:35 -9.51785 -36.46613 30966 ft 468 kts 215°
2026-05-05 06:36 -9.54442 -36.48499 31291 ft 466 kts 216°
2026-05-05 06:36 -9.57087 -36.50380 31626 ft 463 kts 215°
2026-05-05 06:36 -9.59721 -36.52251 31955 ft 461 kts 215°
2026-05-05 06:36 -9.62349 -36.54117 32265 ft 460 kts 216°
2026-05-05 06:37 -9.64931 -36.55949 32573 ft 458 kts 216°
2026-05-05 06:37 -9.67532 -36.57796 32885 ft 456 kts 216°
2026-05-05 06:37 -9.70128 -36.59640 33193 ft 454 kts 216°
2026-05-05 06:37 -9.72710 -36.61477 33498 ft 453 kts 216°
2026-05-05 06:38 -9.75282 -36.63309 33814 ft 451 kts 216°
2026-05-05 06:38 -9.77844 -36.65136 34017 ft 450 kts 216°
2026-05-05 06:38 -9.80385 -36.66947 34050 ft 445 kts 216°
2026-05-05 06:39 -9.85425 -36.70541 34050 ft 442 kts 216°
2026-05-05 06:39 -9.90449 -36.74129 34045 ft 441 kts 216°
2026-05-05 06:40 -9.95462 -36.77716 34051 ft 441 kts 216°
2026-05-05 06:40 -10.00477 -36.81303 34052 ft 441 kts 216°
2026-05-05 06:41 -10.05491 -36.84881 34055 ft 441 kts 216°
2026-05-05 06:41 -10.10506 -36.88470 34059 ft 442 kts 216°
2026-05-05 06:42 -10.15525 -36.92068 34059 ft 441 kts 216°
2026-05-05 06:42 -10.20541 -36.95663 34063 ft 442 kts 216°
2026-05-05 06:43 -10.25563 -36.99260 34064 ft 441 kts 216°
2026-05-05 06:43 -10.30578 -37.02852 34075 ft 441 kts 216°
2026-05-05 06:44 -10.35588 -37.06441 34083 ft 440 kts 216°
2026-05-05 06:44 -10.40595 -37.10035 34075 ft 440 kts 216°
2026-05-05 06:45 -10.45591 -37.13623 34071 ft 440 kts 216°
2026-05-05 06:45 -10.50590 -37.17210 34075 ft 439 kts 216°
2026-05-05 06:46 -10.55577 -37.20799 34076 ft 439 kts 217°
2026-05-05 06:46 -10.60570 -37.24390 34068 ft 439 kts 216°
2026-05-05 06:47 -10.65563 -37.27969 34073 ft 439 kts 216°
2026-05-05 06:47 -10.70552 -37.31555 34077 ft 440 kts 217°
2026-05-05 06:48 -10.75540 -37.35148 34075 ft 439 kts 217°
2026-05-05 06:48 -10.80530 -37.38738 34088 ft 439 kts 217°
2026-05-05 06:49 -10.85519 -37.42330 34079 ft 439 kts 217°
2026-05-05 06:49 -10.90516 -37.45920 34077 ft 440 kts 217°
2026-05-05 06:50 -10.95510 -37.49531 34078 ft 440 kts 217°
2026-05-05 06:50 -11.00503 -37.53139 34080 ft 440 kts 217°
2026-05-05 06:51 -11.05503 -37.56738 34079 ft 440 kts 217°
2026-05-05 06:51 -11.10503 -37.60341 34081 ft 440 kts 217°
2026-05-05 06:52 -11.15491 -37.63944 34078 ft 440 kts 217°
2026-05-05 06:52 -11.19648 -37.66943 34076 ft 440 kts 217°
2026-05-05 06:53 -11.24642 -37.70555 34077 ft 440 kts 217°
2026-05-05 06:53 -11.29637 -37.74162 34074 ft 440 kts 217°
2026-05-05 06:54 -11.34626 -37.77764 34087 ft 439 kts 216°
2026-05-05 06:54 -11.39611 -37.81366 34088 ft 439 kts 217°
2026-05-05 06:55 -11.44591 -37.84972 34081 ft 439 kts 217°
2026-05-05 06:55 -11.49566 -37.88584 34078 ft 439 kts 217°
2026-05-05 06:56 -11.54540 -37.92205 34081 ft 440 kts 217°
2026-05-05 06:56 -11.59516 -37.95830 34083 ft 439 kts 217°
2026-05-05 06:57 -11.64488 -37.99454 34086 ft 439 kts 217°
2026-05-05 06:57 -11.69460 -38.03082 34095 ft 440 kts 217°
2026-05-05 06:58 -11.74435 -38.06714 34096 ft 439 kts 217°
2026-05-05 06:58 -11.79407 -38.10346 34098 ft 439 kts 217°
2026-05-05 06:59 -11.84382 -38.13977 34102 ft 439 kts 217°
2026-05-05 06:59 -11.89352 -38.17604 34103 ft 439 kts 217°
2026-05-05 07:00 -11.94320 -38.21227 34107 ft 439 kts 217°
2026-05-05 07:00 -11.99267 -38.24847 34108 ft 437 kts 217°
2026-05-05 07:01 -12.04207 -38.28468 34107 ft 437 kts 217°
2026-05-05 07:01 -12.09147 -38.32072 34109 ft 437 kts 217°
2026-05-05 07:02 -12.14063 -38.35663 34109 ft 436 kts 217°
2026-05-05 07:02 -12.18990 -38.39274 34112 ft 435 kts 217°
2026-05-05 07:03 -12.23909 -38.42884 34105 ft 435 kts 217°
2026-05-05 07:03 -12.28829 -38.46493 34108 ft 435 kts 217°
2026-05-05 07:04 -12.33790 -38.50124 34115 ft 436 kts 217°
2026-05-05 07:04 -12.38718 -38.53731 34116 ft 435 kts 217°
2026-05-05 07:05 -12.43632 -38.57344 34114 ft 435 kts 217°
2026-05-05 07:05 -12.48541 -38.60953 34112 ft 434 kts 217°
2026-05-05 07:06 -12.53451 -38.64565 34107 ft 435 kts 217°
2026-05-05 07:06 -12.58362 -38.68180 34110 ft 435 kts 218°
2026-05-05 07:07 -12.63278 -38.71790 34122 ft 435 kts 218°
2026-05-05 07:07 -12.68194 -38.75406 34116 ft 435 kts 218°
2026-05-05 07:08 -12.73113 -38.79025 34111 ft 435 kts 218°
2026-05-05 07:08 -12.78028 -38.82647 34111 ft 435 kts 218°
2026-05-05 07:09 -12.82944 -38.86276 34119 ft 436 kts 218°
2026-05-05 07:09 -12.87856 -38.89912 34118 ft 435 kts 218°
2026-05-05 07:10 -12.92731 -38.93528 34116 ft 435 kts 218°
2026-05-05 07:10 -12.97636 -38.97162 34114 ft 435 kts 218°
2026-05-05 07:11 -13.02548 -39.00797 34112 ft 435 kts 218°
2026-05-05 07:11 -13.07454 -39.04432 34117 ft 435 kts 218°
2026-05-05 07:12 -13.12355 -39.08070 34123 ft 435 kts 218°
2026-05-05 07:12 -13.17252 -39.11713 34111 ft 436 kts 218°
2026-05-05 07:13 -13.22166 -39.15358 34112 ft 436 kts 218°
2026-05-05 07:13 -13.27077 -39.19003 34116 ft 435 kts 218°
2026-05-05 07:14 -13.31983 -39.22652 34120 ft 435 kts 218°
2026-05-05 07:14 -13.36885 -39.26300 34130 ft 435 kts 219°
2026-05-05 07:15 -13.41779 -39.29950 34122 ft 435 kts 218°
2026-05-05 07:15 -13.46683 -39.33607 34127 ft 435 kts 219°
2026-05-05 07:16 -13.51580 -39.37270 34128 ft 435 kts 219°
2026-05-05 07:16 -13.56477 -39.40934 34138 ft 435 kts 219°
2026-05-05 07:17 -13.61364 -39.44597 34149 ft 435 kts 219°
2026-05-05 07:17 -13.66248 -39.48255 34146 ft 434 kts 219°
2026-05-05 07:18 -13.71128 -39.51924 34152 ft 435 kts 219°
2026-05-05 07:18 -13.76012 -39.55593 34140 ft 435 kts 219°
2026-05-05 07:19 -13.80892 -39.59261 34134 ft 435 kts 219°
2026-05-05 07:19 -13.85766 -39.62922 34148 ft 433 kts 219°
2026-05-05 07:20 -13.90630 -39.66578 34148 ft 433 kts 219°
2026-05-05 07:20 -13.95502 -39.70237 34149 ft 434 kts 219°
2026-05-05 07:21 -14.00380 -39.73911 34145 ft 434 kts 219°
2026-05-05 07:21 -14.05262 -39.77585 34151 ft 435 kts 219°
2026-05-05 07:22 -14.10144 -39.81258 34154 ft 435 kts 219°
2026-05-05 07:22 -14.15022 -39.84941 34150 ft 435 kts 219°
2026-05-05 07:23 -14.19896 -39.88621 34157 ft 434 kts 219°
2026-05-05 07:23 -14.24771 -39.92298 34164 ft 434 kts 219°
2026-05-05 07:24 -14.29639 -39.95971 34173 ft 434 kts 219°
2026-05-05 07:24 -14.34507 -39.99651 34177 ft 434 kts 219°
2026-05-05 07:25 -14.39379 -40.03335 34171 ft 434 kts 219°
2026-05-05 07:25 -14.44241 -40.07011 34158 ft 433 kts 219°
2026-05-05 07:26 -14.49098 -40.10680 34171 ft 432 kts 219°
2026-05-05 07:26 -14.53947 -40.14350 34178 ft 432 kts 219°
2026-05-05 07:27 -14.58796 -40.18025 34167 ft 433 kts 219°
2026-05-05 07:27 -14.63658 -40.21723 34320 ft 437 kts 219°
2026-05-05 07:27 -14.66106 -40.23585 34563 ft 437 kts 219°
2026-05-05 07:28 -14.68553 -40.25441 34849 ft 436 kts 219°
2026-05-05 07:28 -14.70997 -40.27288 35141 ft 434 kts 219°
2026-05-05 07:28 -14.73428 -40.29128 35439 ft 433 kts 219°
2026-05-05 07:28 -14.75852 -40.30963 35705 ft 431 kts 219°
2026-05-05 07:29 -14.78271 -40.32798 36003 ft 430 kts 219°
2026-05-05 07:29 -14.80685 -40.34630 36171 ft 430 kts 220°
2026-05-05 07:29 -14.83092 -40.36459 36168 ft 430 kts 220°
2026-05-05 07:30 -14.87902 -40.40126 36174 ft 429 kts 220°
2026-05-05 07:30 -14.95112 -40.45619 36172 ft 429 kts 220°
2026-05-05 07:31 -14.99915 -40.49273 36176 ft 429 kts 220°
2026-05-05 07:31 -15.04719 -40.52934 36186 ft 429 kts 220°
2026-05-05 07:32 -15.09521 -40.56600 36191 ft 429 kts 220°
2026-05-05 07:32 -15.13518 -40.59643 36194 ft 429 kts 220°
2026-05-05 07:33 -15.18334 -40.63312 36195 ft 430 kts 220°
2026-05-05 07:33 -15.23937 -40.67586 36199 ft 430 kts 220°
2026-05-05 07:34 -15.27972 -40.70670 36214 ft 429 kts 220°
2026-05-05 07:34 -15.32778 -40.74338 36206 ft 429 kts 220°
2026-05-05 07:35 -15.37581 -40.78014 36209 ft 429 kts 220°
2026-05-05 07:35 -15.42379 -40.81695 36205 ft 429 kts 220°
2026-05-05 07:36 -15.47183 -40.85370 36217 ft 429 kts 220°
2026-05-05 07:36 -15.51986 -40.89052 36230 ft 429 kts 220°
2026-05-05 07:37 -15.56757 -40.92708 36212 ft 429 kts 220°
2026-05-05 07:37 -15.61576 -40.96414 36204 ft 428 kts 220°
2026-05-05 07:38 -15.66340 -41.00070 36213 ft 428 kts 220°
2026-05-05 07:38 -15.71132 -41.03747 36208 ft 428 kts 220°
2026-05-05 07:39 -15.75922 -41.07427 36231 ft 429 kts 220°
2026-05-05 07:39 -15.80712 -41.11109 36217 ft 428 kts 220°
2026-05-05 07:40 -15.85504 -41.14792 36210 ft 429 kts 220°
2026-05-05 07:40 -15.90297 -41.18477 36220 ft 429 kts 220°
2026-05-05 07:41 -15.95092 -41.22175 36216 ft 430 kts 220°
2026-05-05 07:41 -15.99887 -41.25877 36224 ft 429 kts 220°
2026-05-05 07:42 -16.04684 -41.29575 36223 ft 429 kts 220°
2026-05-05 07:42 -16.09487 -41.33270 36222 ft 429 kts 220°
2026-05-05 07:43 -16.14277 -41.36966 36220 ft 429 kts 220°
2026-05-05 07:43 -16.19063 -41.40666 36232 ft 428 kts 220°
2026-05-05 07:44 -16.23838 -41.44358 36221 ft 427 kts 220°
2026-05-05 07:44 -16.28608 -41.48046 36216 ft 427 kts 220°
2026-05-05 07:45 -16.33378 -41.51737 36217 ft 427 kts 220°
2026-05-05 07:45 -16.38143 -41.55430 36220 ft 427 kts 220°
2026-05-05 07:46 -16.42912 -41.59126 36228 ft 427 kts 220°
2026-05-05 07:46 -16.47683 -41.62826 36225 ft 427 kts 220°
2026-05-05 07:47 -16.52450 -41.66529 36226 ft 427 kts 220°
2026-05-05 07:47 -16.57220 -41.70231 36224 ft 427 kts 220°
2026-05-05 07:48 -16.61985 -41.73938 36228 ft 427 kts 220°
2026-05-05 07:48 -16.66750 -41.77642 36225 ft 427 kts 220°
2026-05-05 07:49 -16.71513 -41.81340 36223 ft 426 kts 220°
2026-05-05 07:49 -16.76271 -41.85038 36222 ft 427 kts 220°
2026-05-05 07:50 -16.81021 -41.88746 36224 ft 426 kts 220°
2026-05-05 07:50 -16.85770 -41.92445 36224 ft 426 kts 220°
2026-05-05 07:51 -16.90514 -41.96140 36224 ft 425 kts 220°
2026-05-05 07:51 -16.95260 -41.99844 36219 ft 425 kts 220°
2026-05-05 07:52 -16.99996 -42.03541 36215 ft 425 kts 220°
2026-05-05 07:52 -17.04733 -42.07242 36218 ft 425 kts 220°
2026-05-05 07:53 -17.09464 -42.10943 36235 ft 425 kts 220°
2026-05-05 07:53 -17.14194 -42.14653 36231 ft 425 kts 220°
2026-05-05 07:54 -17.18923 -42.18360 36232 ft 425 kts 220°
2026-05-05 07:54 -17.23659 -42.22067 36236 ft 425 kts 220°
2026-05-05 07:55 -17.28385 -42.25771 36250 ft 424 kts 220°
2026-05-05 07:55 -17.33095 -42.29477 36245 ft 424 kts 220°
2026-05-05 07:56 -17.37802 -42.33180 36243 ft 423 kts 220°
2026-05-05 07:56 -17.42516 -42.36876 36246 ft 423 kts 220°
2026-05-05 07:57 -17.47232 -42.40578 36246 ft 424 kts 220°
2026-05-05 07:57 -17.51939 -42.44289 36250 ft 423 kts 220°
2026-05-05 07:58 -17.56644 -42.48001 36247 ft 423 kts 220°
2026-05-05 07:58 -17.61352 -42.51712 36247 ft 423 kts 220°
2026-05-05 07:59 -17.66055 -42.55415 36247 ft 423 kts 220°
2026-05-05 07:59 -17.70758 -42.59125 36253 ft 423 kts 220°
2026-05-05 08:00 -17.75455 -42.62829 36246 ft 422 kts 220°
2026-05-05 08:00 -17.80148 -42.66538 36248 ft 422 kts 220°
2026-05-05 08:01 -17.84841 -42.70256 36246 ft 423 kts 220°
2026-05-05 08:01 -17.89536 -42.73967 36246 ft 422 kts 220°
2026-05-05 08:02 -17.94230 -42.77678 36256 ft 422 kts 220°
2026-05-05 08:02 -17.98922 -42.81393 36250 ft 422 kts 220°
2026-05-05 08:03 -18.03610 -42.85111 36248 ft 422 kts 220°
2026-05-05 08:03 -18.08287 -42.88830 36251 ft 421 kts 220°
2026-05-05 08:04 -18.12967 -42.92543 36269 ft 421 kts 220°
2026-05-05 08:04 -18.17640 -42.96250 36257 ft 421 kts 220°
2026-05-05 08:05 -18.22305 -42.99968 36251 ft 421 kts 220°
2026-05-05 08:05 -18.26947 -43.03661 36247 ft 421 kts 220°
2026-05-05 08:06 -18.31611 -43.07374 36248 ft 420 kts 220°
2026-05-05 08:06 -18.36279 -43.11086 36258 ft 420 kts 220°
2026-05-05 08:07 -18.40938 -43.14798 36263 ft 420 kts 220°
2026-05-05 08:07 -18.45570 -43.18551 36258 ft 420 kts 220°
2026-05-05 08:08 -18.50187 -43.22311 36258 ft 420 kts 220°
2026-05-05 08:08 -18.54810 -43.26063 36267 ft 419 kts 220°
2026-05-05 08:09 -18.59436 -43.29809 36259 ft 419 kts 220°
2026-05-05 08:09 -18.64053 -43.33559 36256 ft 419 kts 220°
2026-05-05 08:10 -18.68697 -43.37263 36257 ft 418 kts 220°
2026-05-05 08:10 -18.73363 -43.40933 36263 ft 418 kts 220°
2026-05-05 08:11 -18.78006 -43.44615 36257 ft 417 kts 220°
2026-05-05 08:11 -18.82632 -43.48308 36254 ft 417 kts 220°
2026-05-05 08:12 -18.87259 -43.51997 36249 ft 417 kts 220°
2026-05-05 08:12 -18.91918 -43.55647 36245 ft 417 kts 219°
2026-05-05 08:13 -18.96625 -43.59235 36245 ft 417 kts 219°
2026-05-05 08:13 -19.01338 -43.62823 36247 ft 417 kts 219°
2026-05-05 08:14 -19.06033 -43.66415 36244 ft 417 kts 219°
2026-05-05 08:14 -19.10723 -43.70030 36241 ft 417 kts 219°
2026-05-05 08:15 -19.14618 -43.73043 36251 ft 417 kts 219°
2026-05-05 08:15 -19.19306 -43.76649 36243 ft 417 kts 219°
2026-05-05 08:16 -19.23998 -43.80255 36250 ft 416 kts 219°
2026-05-05 08:16 -19.28675 -43.83861 36237 ft 416 kts 219°
2026-05-05 08:17 -19.33352 -43.87471 36261 ft 416 kts 219°
2026-05-05 08:17 -19.38028 -43.91086 36272 ft 416 kts 219°
2026-05-05 08:18 -19.42704 -43.94697 36283 ft 416 kts 219°
2026-05-05 08:18 -19.47375 -43.98306 36285 ft 415 kts 219°
2026-05-05 08:19 -19.52039 -44.01912 36295 ft 415 kts 219°
2026-05-05 08:19 -19.56705 -44.05526 36304 ft 415 kts 219°
2026-05-05 08:20 -19.61379 -44.09124 36252 ft 414 kts 218°
2026-05-05 08:20 -19.66049 -44.12701 36251 ft 414 kts 218°
2026-05-05 08:21 -19.70721 -44.16288 36250 ft 414 kts 218°
2026-05-05 08:21 -19.75381 -44.19880 36260 ft 414 kts 219°
2026-05-05 08:22 -19.80032 -44.23480 36258 ft 413 kts 219°
2026-05-05 08:22 -19.84673 -44.27071 36258 ft 413 kts 219°
2026-05-05 08:23 -19.89305 -44.30670 36256 ft 412 kts 219°
2026-05-05 08:23 -19.93940 -44.34266 36271 ft 412 kts 219°
2026-05-05 08:24 -19.98573 -44.37861 36266 ft 412 kts 219°
2026-05-05 08:24 -20.03207 -44.41451 36265 ft 412 kts 219°
2026-05-05 08:25 -20.07830 -44.45040 36253 ft 411 kts 219°
2026-05-05 08:25 -20.12452 -44.48627 36280 ft 411 kts 219°
2026-05-05 08:26 -20.17069 -44.52220 36266 ft 411 kts 219°
2026-05-05 08:26 -20.21681 -44.55810 36259 ft 410 kts 219°
2026-05-05 08:27 -20.26288 -44.59398 36268 ft 410 kts 219°
2026-05-05 08:27 -20.30897 -44.62988 36261 ft 410 kts 218°
2026-05-05 08:28 -20.35505 -44.66574 36269 ft 410 kts 218°
2026-05-05 08:28 -20.40114 -44.70161 36268 ft 410 kts 218°
2026-05-05 08:29 -20.44709 -44.73752 36263 ft 410 kts 219°
2026-05-05 08:30 -20.51601 -44.79139 36286 ft 409 kts 218°
2026-05-05 08:30 -20.56189 -44.82720 36269 ft 409 kts 218°
2026-05-05 08:31 -20.60776 -44.86304 36274 ft 409 kts 218°
2026-05-05 08:31 -20.65359 -44.89889 36269 ft 408 kts 218°
2026-05-05 08:32 -20.69947 -44.93481 36285 ft 409 kts 218°
2026-05-05 08:32 -20.74525 -44.97072 36284 ft 408 kts 218°
2026-05-05 08:33 -20.79101 -45.00663 36284 ft 407 kts 218°
2026-05-05 08:33 -20.83662 -45.04255 36279 ft 407 kts 219°
2026-05-05 08:34 -20.88217 -45.07848 36276 ft 407 kts 219°
2026-05-05 08:34 -20.92778 -45.11438 36277 ft 407 kts 218°
2026-05-05 08:35 -20.97339 -45.15027 36273 ft 407 kts 218°
2026-05-05 08:35 -21.01899 -45.18620 36270 ft 407 kts 219°
2026-05-05 08:36 -21.06452 -45.22217 36268 ft 407 kts 218°
2026-05-05 08:36 -21.11016 -45.25818 36265 ft 407 kts 218°
2026-05-05 08:37 -21.15575 -45.29413 36266 ft 407 kts 219°
2026-05-05 08:37 -21.20123 -45.33015 36263 ft 406 kts 219°
2026-05-05 08:38 -21.24675 -45.36611 36262 ft 406 kts 218°
2026-05-05 08:38 -21.29218 -45.40205 36270 ft 405 kts 218°
2026-05-05 08:39 -21.33752 -45.43796 36272 ft 405 kts 218°
2026-05-05 08:39 -21.38283 -45.47393 36262 ft 405 kts 218°
2026-05-05 08:40 -21.42805 -45.50989 36261 ft 404 kts 218°
2026-05-05 08:40 -21.47328 -45.54589 36259 ft 405 kts 218°
2026-05-05 08:41 -21.51857 -45.58182 36262 ft 405 kts 218°
2026-05-05 08:41 -21.56433 -45.61775 36261 ft 405 kts 218°
2026-05-05 08:42 -21.60953 -45.65310 36049 ft 403 kts 218°
2026-05-05 08:42 -21.63244 -45.67105 35807 ft 402 kts 218°
2026-05-05 08:42 -21.65495 -45.68868 35515 ft 398 kts 218°
2026-05-05 08:42 -21.67722 -45.70615 35074 ft 395 kts 218°
2026-05-05 08:43 -21.69928 -45.72350 34635 ft 392 kts 218°
2026-05-05 08:43 -21.72095 -45.74056 34205 ft 390 kts 218°
2026-05-05 08:43 -21.74303 -45.75796 33738 ft 386 kts 218°
2026-05-05 08:43 -21.76459 -45.77492 33317 ft 382 kts 218°
2026-05-05 08:44 -21.78588 -45.79170 32900 ft 378 kts 218°
2026-05-05 08:44 -21.80702 -45.80838 32476 ft 375 kts 218°
2026-05-05 08:44 -21.82768 -45.82468 32063 ft 371 kts 218°
2026-05-05 08:44 -21.84839 -45.84103 31653 ft 368 kts 218°
2026-05-05 08:45 -21.86920 -45.85746 31244 ft 365 kts 218°
2026-05-05 08:45 -21.88929 -45.87336 30846 ft 362 kts 218°
2026-05-05 08:45 -21.90945 -45.88935 30461 ft 359 kts 218°
2026-05-05 08:45 -21.92953 -45.90525 30018 ft 357 kts 218°
2026-05-05 08:46 -21.94974 -45.92120 29631 ft 354 kts 218°
2026-05-05 08:46 -21.96951 -45.93677 29251 ft 350 kts 218°
2026-05-05 08:46 -21.98908 -45.95220 28873 ft 347 kts 218°
2026-05-05 08:46 -22.00842 -45.96748 28522 ft 343 kts 218°
2026-05-05 08:47 -22.02753 -45.98259 28155 ft 339 kts 218°
2026-05-05 08:47 -22.04646 -45.99756 27808 ft 335 kts 218°
2026-05-05 08:47 -22.06515 -46.01238 27466 ft 331 kts 218°
2026-05-05 08:47 -22.08360 -46.02702 27133 ft 328 kts 218°
2026-05-05 08:48 -22.10192 -46.04155 26799 ft 326 kts 218°
2026-05-05 08:48 -22.12017 -46.05605 26472 ft 325 kts 218°
2026-05-05 08:48 -22.13833 -46.07050 26137 ft 323 kts 217°
2026-05-05 08:48 -22.15641 -46.08487 25766 ft 322 kts 217°
2026-05-05 08:49 -22.17438 -46.09914 25391 ft 320 kts 217°
2026-05-05 08:49 -22.19229 -46.11334 25020 ft 319 kts 217°
2026-05-05 08:49 -22.21010 -46.12748 24641 ft 318 kts 217°
2026-05-05 08:49 -22.22787 -46.14159 24279 ft 316 kts 217°
2026-05-05 08:50 -22.24557 -46.15567 23889 ft 316 kts 217°
2026-05-05 08:50 -22.26322 -46.16971 23444 ft 315 kts 217°
2026-05-05 08:50 -22.28077 -46.18367 23059 ft 312 kts 217°
2026-05-05 08:50 -22.29820 -46.19751 22660 ft 310 kts 215°
2026-05-05 08:51 -22.31692 -46.20896 22276 ft 309 kts 204°
2026-05-05 08:51 -22.33759 -46.21615 21904 ft 322 kts 193°
2026-05-05 08:51 -22.36020 -46.21994 21501 ft 333 kts 190°
2026-05-05 08:51 -22.38318 -46.22347 21090 ft 334 kts 190°
2026-05-05 08:52 -22.40614 -46.22700 20689 ft 333 kts 190°
2026-05-05 08:52 -22.42902 -46.23049 20290 ft 332 kts 190°
2026-05-05 08:52 -22.45182 -46.23396 19888 ft 330 kts 190°
2026-05-05 08:52 -22.47453 -46.23745 19491 ft 329 kts 190°
2026-05-05 08:53 -22.49713 -46.24095 19101 ft 328 kts 190°
2026-05-05 08:53 -22.51205 -46.24327 18838 ft 327 kts 190°
2026-05-05 08:53 -22.53454 -46.24678 18424 ft 325 kts 190°
2026-05-05 08:53 -22.55683 -46.25023 18075 ft 321 kts 190°
2026-05-05 08:54 -22.57904 -46.25368 17935 ft 323 kts 190°
2026-05-05 08:54 -22.60130 -46.25716 17750 ft 323 kts 190°
2026-05-05 08:54 -22.62353 -46.26063 17564 ft 322 kts 190°
2026-05-05 08:54 -22.64573 -46.26409 17379 ft 322 kts 190°
2026-05-05 08:55 -22.66790 -46.26751 17190 ft 322 kts 190°
2026-05-05 08:55 -22.69006 -46.27093 17006 ft 321 kts 190°
2026-05-05 08:55 -22.71216 -46.27437 16820 ft 321 kts 190°
2026-05-05 08:55 -22.73422 -46.27782 16634 ft 320 kts 190°
2026-05-05 08:56 -22.75628 -46.28126 16451 ft 320 kts 189°
2026-05-05 08:56 -22.77803 -46.28570 16269 ft 317 kts 198°
2026-05-05 08:56 -22.79835 -46.29484 15986 ft 316 kts 210°
2026-05-05 08:56 -22.81739 -46.30666 15668 ft 315 kts 210°
2026-05-05 08:57 -22.83636 -46.31847 15354 ft 314 kts 210°
2026-05-05 08:57 -22.85528 -46.33024 15042 ft 313 kts 210°
2026-05-05 08:57 -22.87416 -46.34198 14739 ft 313 kts 210°
2026-05-05 08:57 -22.89300 -46.35367 14429 ft 312 kts 210°
2026-05-05 08:58 -22.91182 -46.36530 14121 ft 311 kts 210°
2026-05-05 08:58 -22.93058 -46.37691 13785 ft 309 kts 209°
2026-05-05 08:58 -22.94920 -46.38845 13474 ft 307 kts 209°
2026-05-05 08:58 -22.96773 -46.39995 13161 ft 306 kts 209°
2026-05-05 08:59 -22.98622 -46.41144 12860 ft 306 kts 209°
2026-05-05 08:59 -23.00464 -46.42289 12563 ft 305 kts 210°
2026-05-05 08:59 -23.02300 -46.43430 12264 ft 304 kts 210°
2026-05-05 08:59 -23.04129 -46.44568 11962 ft 302 kts 210°
2026-05-05 09:00 -23.05948 -46.45699 11664 ft 301 kts 210°
2026-05-05 09:00 -23.07759 -46.46823 11372 ft 299 kts 210°
2026-05-05 09:00 -23.09564 -46.47944 11074 ft 298 kts 210°
2026-05-05 09:00 -23.11360 -46.49061 10779 ft 297 kts 210°
2026-05-05 09:01 -23.13132 -46.50162 10518 ft 291 kts 210°
2026-05-05 09:01 -23.14883 -46.51254 10202 ft 288 kts 210°
2026-05-05 09:01 -23.16616 -46.52336 9899 ft 286 kts 210°
2026-05-05 09:01 -23.18335 -46.53410 9615 ft 285 kts 210°
2026-05-05 09:02 -23.20052 -46.54480 9335 ft 284 kts 210°
2026-05-05 09:02 -23.21751 -46.55567 9054 ft 283 kts 212°
2026-05-05 09:02 -23.23387 -46.56700 8783 ft 282 kts 213°
2026-05-05 09:02 -23.25045 -46.57888 8480 ft 281 kts 214°
2026-05-05 09:03 -23.26679 -46.59068 8038 ft 284 kts 214°
2026-05-05 09:03 -23.28293 -46.60230 7799 ft 280 kts 214°
2026-05-05 09:03 -23.29917 -46.61394 7597 ft 279 kts 214°
2026-05-05 09:03 -23.31538 -46.62550 7395 ft 279 kts 214°
2026-05-05 09:04 -23.33158 -46.63707 7166 ft 278 kts 214°
2026-05-05 09:04 -23.34767 -46.64856 6967 ft 276 kts 214°
2026-05-05 09:04 -23.36371 -46.65999 6768 ft 275 kts 214°
2026-05-05 09:04 -23.37968 -46.67135 6568 ft 274 kts 214°
2026-05-05 09:05 -23.39572 -46.68271 6361 ft 274 kts 214°
2026-05-05 09:05 -23.41203 -46.69346 6164 ft 275 kts 206°
2026-05-05 09:05 -23.43013 -46.69936 5966 ft 270 kts 189°
2026-05-05 09:05 -23.44861 -46.69850 5801 ft 263 kts 165°
2026-05-05 09:06 -23.46443 -46.68990 5780 ft 250 kts 141°
2026-05-05 09:06 -23.47566 -46.67579 5682 ft 248 kts 118°
2026-05-05 09:06 -23.48110 -46.65828 5522 ft 241 kts 96°
2026-05-05 09:06 -23.48006 -46.64036 5221 ft 234 kts 73°
2026-05-05 09:07 -23.47554 -46.62354 4963 ft 228 kts 71°
2026-05-05 09:07 -23.47125 -46.60748 4657 ft 216 kts 71°
2026-05-05 09:07 -23.46717 -46.59236 4382 ft 199 kts 71°
2026-05-05 09:07 -23.46343 -46.57842 4129 ft 184 kts 71°
2026-05-05 09:08 -23.45995 -46.56552 3909 ft 171 kts 72°
2026-05-05 09:08 -23.45667 -46.55339 3758 ft 160 kts 71°
2026-05-05 09:08 -23.45356 -46.54181 3547 ft 155 kts 71°
2026-05-05 09:08 -23.45056 -46.53068 3342 ft 151 kts 72°
2026-05-05 09:09 -23.44764 -46.51971 3131 ft 149 kts 71°
2026-05-05 09:09 -23.44473 -46.50901 2937 ft 146 kts 72°
2026-05-05 09:09 -23.44189 -46.49849 2724 ft 143 kts 73°
2026-05-05 09:09 -23.43911 -46.48814 2512 ft 142 kts 73°
2026-05-05 09:10 -23.43644 -46.47847 2473 ft 115 kts 74°
2026-05-05 09:10 -23.43471 -46.47194 2474 ft 65 kts 74°
2026-05-05 09:10 -23.43385 -46.46960 2470 ft 23 kts 50°
2026-05-05 09:10 -23.43273 -46.46834 2472 ft 23 kts 44°
2026-05-05 09:11 -23.43198 -46.46754 2471 ft 14 kts 43°
2026-05-05 09:11 -23.43110 -46.46715 2471 ft 14 kts 358°
2026-05-05 09:11 -23.43012 -46.46742 2472 ft 15 kts 343°
2026-05-05 09:11 -23.42902 -46.46776 2470 ft 18 kts 344°
2026-05-05 09:12 -23.42795 -46.46811 2474 ft 12 kts 335°
2026-05-05 09:12 -23.42781 -46.46894 2469 ft 13 kts 255°
2026-05-05 09:12 -23.42808 -46.46995 2471 ft 15 kts 253°
2026-05-05 09:12 -23.42840 -46.47107 2472 ft 16 kts 252°
2026-05-05 09:13 -23.42874 -46.47233 2468 ft 18 kts 253°
2026-05-05 09:13 -23.42913 -46.47370 2471 ft 20 kts 253°
2026-05-05 09:13 -23.42951 -46.47518 2468 ft 21 kts 255°
2026-05-05 09:13 -23.42993 -46.47676 2469 ft 23 kts 253°
2026-05-05 09:14 -23.43012 -46.47789 2468 ft 11 kts 291°
2026-05-05 09:14 -23.42943 -46.47826 2470 ft 12 kts 349°
2026-05-05 09:14 -23.42883 -46.47840 2469 ft 9 kts 341°
2026-05-05 09:14 -23.42839 -46.47890 2475 ft 9 kts 277°
2026-05-05 09:15 -23.42853 -46.47896 2472 ft 3 kts 182°
2026-05-05 09:15 -23.42876 -46.47893 2468 ft 3 kts 186°
2026-05-05 09:15 -23.42882 -46.47909 2471 ft 3 kts 276°
2026-05-05 09:15 -23.42880 -46.47932 2468 ft 0 kts 273°